Shahre-Kord, Iran

4:17 PM +0430 on April 19, 2018 (GMT +0430)
Shahre Kord

Weather History for OIFS - October, 2012

Change the Weather History Date:

Thursday, October 4, 2012

  Actual Average Record
Temperature  
Mean Temperature 56 °F -  
Max Temperature 75 °F - - ()
Min Temperature 37 °F - - ()
Degree Days  
Heating Degree Days 9    
Growing Degree Days 6 (Base 50)    
Moisture  
Dew Point 26 °F    
Average Humidity 32    
Maximum Humidity 56    
Minimum Humidity 9    
Precipitation  
Precipitation 0.00 in - - ()
Sea Level Pressure  
Sea Level Pressure 30.18 in    
Wind  
Wind Speed 3 mph ()    
Max Wind Speed 9 mph    
Max Gust Speed -    
Visibility 6.1 miles    
Events      
T = Trace of Precipitation, MM = Missing Value Source: Averaged Metar Reports

Daily Weather History Graph

Daily Weather History Graph

Search for Another Location

Airport or City:

Astronomy

Oct. 04, 2012 Rise Set
Actual Time 6:02 AM +0330 5:47 PM +0330
Civil Twilight 5:38 AM +0330 6:11 PM +0330
Nautical Twilight 5:09 AM +0330 6:40 PM +0330
Astronomical Twilight 4:41 AM +0330 7:08 PM +0330
Moon 8:20 PM +0330 (10/4) 9:44 AM +0330 (10/4)
Length of Visible Light 12h 33m
Length of Day
11h 44m
Waning Gibbous, 84% of the Moon is Illuminated
Oct 4
Waning Gibbous
Oct 8
Last Quarter
Oct 15
New
Oct 22
First Quarter
Oct 29
Full

Hourly Weather History & Observations

Time (+0330) Temp. Windchill Dew Point Humidity Pressure Visibility Wind Dir Wind Speed Gust Speed Precip Events Conditions
12:30 AM 48.2 °F - 24.8 °F 40% 30.27 in - WNW 6.9 mph - N/A   Clear
1:30 AM 44.6 °F - 23.0 °F 43% 30.27 in - Calm Calm - N/A   Clear
2:30 AM 44.6 °F 40.7 °F 23.0 °F 43% 30.27 in - North 6.9 mph - N/A   Clear
3:30 AM 41 °F - 25 °F 40% 29.92 in 6 mi Calm Calm - -   Clear
3:30 AM 41.0 °F - 24.8 °F 53% 30.27 in - Calm Calm - N/A   Clear
4:30 AM 39.2 °F - 24.8 °F 56% 30.24 in - Calm Calm - N/A   Clear
5:30 AM 37.4 °F - 23.0 °F 56% 30.24 in - Calm Calm - N/A   Clear
6:30 AM 39.2 °F - 19.4 °F 45% 30.27 in - Calm Calm - N/A   Clear
7:30 AM 42.8 °F - 23.0 °F 46% 30.27 in - Calm Calm - N/A   Clear
8:30 AM 51.8 °F - 26.6 °F 38% 30.30 in - Calm Calm - N/A   Clear
9:30 AM 59 °F - 29 °F 20% 29.99 in 6 mi Calm Calm - -  
9:30 AM 59.0 °F - 28.4 °F 31% 30.27 in - Calm Calm - N/A   Clear
10:30 AM 64.4 °F - 26.6 °F 24% 30.27 in - Calm Calm - N/A   Clear
11:30 AM 68.0 °F - 26.6 °F 21% 30.24 in - ENE 6.9 mph - N/A   Clear
12:30 PM 73.4 °F - 26.6 °F 18% 30.21 in - SSE 4.6 mph - N/A   Clear
1:30 PM 75.2 °F - 26.6 °F 17% 30.21 in 6.2 mi NE 6.9 mph - N/A   Partly Cloudy
2:30 PM 75.2 °F - 24.8 °F 15% 30.15 in 6.2 mi NE 9.2 mph - N/A   Partly Cloudy
3:30 PM 75 °F - 27 °F 9% 29.86 in 6 mi NNE 8.9 mph - -   Scattered Clouds
3:30 PM 75.2 °F - 26.6 °F 17% 30.15 in 6.2 mi NNE 9.2 mph - N/A   Partly Cloudy
4:30 PM 75.2 °F - 28.4 °F 18% 30.15 in 6.2 mi NE 6.9 mph - N/A   Scattered Clouds
5:30 PM 71.6 °F - 26.6 °F 19% 30.15 in 6.2 mi NNE 4.6 mph - N/A   Mostly Cloudy
6:30 PM 66.2 °F - 24.8 °F 21% 30.15 in 6.2 mi ESE 6.9 mph - N/A   Mostly Cloudy
7:30 PM 59.0 °F - 30.2 °F 34% 30.18 in - Calm Calm - N/A   Clear
8:30 PM 60.8 °F - 30.2 °F 31% 30.21 in - Calm Calm - N/A   Clear
9:30 PM 57 °F - 30 °F 23% 29.89 in 6 mi Calm Calm - -  
9:30 PM 57.2 °F - 30.2 °F 36% 30.21 in - Calm Calm - N/A   Clear
10:30 PM 51.8 °F - 30.2 °F 44% 30.21 in - Calm Calm - N/A   Clear
11:30 PM 51.8 °F - 28.4 °F 41% 30.18 in - Calm Calm - N/A   Clear